Jackpot

Texas Poker Multi Jackpot System

Kini Telah hadir Jackpot SUPER ROYAL FLUSH

Kini Telah hadir Jackpot 2000 (khusus table VIP keatas).

Ikutilah global jackpot yang tersedia di system kami, dengan system jackpot terbaru dan pertama di indonesia, anda dapat membeli jackpot dengan harga 100 rupiah saja dan menangkan hadiahnya hingga puluhan juta rupiah.

Jackpot bukanlah suatu keharusan untuk dibeli, namun kami memberikan suatu fitur tambahan untuk member tercinta dari www.genjipoker.net.

Terdapat tiga pilihan harga jackpot yang bisa anda beli yaitu :100,500,1000 dan 2000(khusus table VIP Keatas) rupiah.

Hadiah dari Multi jackpot system www.genjipoker.net

  1. full house x 10 harga jackpot yang anda beli.
      (contoh:anda membeli 1000 maka:1000 X10 = 10.000)
  2. four of kind x 250 harga jackpot yang anda beli
      (contoh:anda membeli 1000 maka:1000 X250 = 250.000)
  3. Straight flush x 1200
      (contoh:anda membeli 1000 maka:1000 X1200 = 1.200.000)
  4. Royal flush x 10000 harga jackpot yang anda beli
      (contoh:anda membeli 1000 maka:1000 X10000 = 10.000.000)
  5. SUPER ROYAL FLUSH x 30000 harga jackpot yang anda beli
      (contoh:anda membeli 1000 maka:1000 X30000 = 30.000.000)

Kondisi kartu

  1. full house adalah kondisi kartu dimana kartu anda dan kartu tengah dengan total 7 kartu bisa mendapatkan nilai 5 kartu dengan kombinasi 1 tris(three of kind) dan 1 pair, contoh 3 kartu 10 dan 2 kartu 5
  2. Four of kind adalah kondisi kartu dimana kartu anda dan kartu tengah dengan total 7 kartu bisa mendapatkan nilai 5 kartu dengan kombinasi 4 kartu yang sama jumlah dan 1 kartu apapun juga contoh anda mendapatkan 4 buah kartu angka 3 dan 1 kartu apapun.
  3. Staright flush adalah kondisi kartu dimana kartu anda dan kartu tengah dengan total 7 kartu bisa mendapatkan nilai 5 kartu dengan kombinasi seri / staright dengan kembang yang sama contoh : urutan kartu dari angka 5, 6, 7, 8 , 9 10 dengan kembang yg sama misalnya as hati
  4. Royal flush adalah kondisi kartu dimana kartu anda dan kartu tengah dengan total 7 kartu bisa mendapatkan nilai 5 kartu dengan kombinasi seri / staright dengan kembang yang sama tetapi kartu tersebut haruslah dimulai dari 10. contoh 10, Queen, Jack, King dan aces dengan kembang yang sama
  5. Super Royal flush adalah kondisi kartu dimana Kedua kartu anda digabung dengan 3 kartu pertama meja haruslah royal flush. contoh kartu anda 10,Queen kembang sama dan 3 kartu pertama meja adalah Jack, King dan aces dengan kembang yang sama

Demikian adalah penjelasan dari Multi Jackpot www.genjipoker.net terima kasih dan selamat bermain salam hoki dari kami

Texas Poker Jackpot Winner

TOP SUPER ROYAL FLUSH
No.TanggalNamaPriceWin
124/01 05:25WEDF2PFJSuper Royal flush3,000,000
223/01 23:32KHOEJUNSuper Royal flush30,000,000
323/01 13:16KITICSuper Royal flush3,000,000
422/01 21:21XYXGICUUBZSuper Royal flush15,000,000
522/01 17:27QQWILDANSuper Royal flush15,000,000
TOP ROYAL FLUSH
No.TanggalNamaPriceWin
124/01 05:18IMAMFAIRoyal flush1,000,000
224/01 05:02C066CA14Royal flush5,000,000
324/01 04:40FDB7E607Royal flush1,000,000
424/01 03:25CLEKOTOKRoyal flush10,000,000
524/01 03:23BTXNEORoyal flush1,000,000
TOP STRAIGHT FLUSH
No.TanggalNamaPriceWin
124/01 06:00MF7O1291C7Straight Flush600,000
224/01 05:59WIR4HOKI77Straight Flush120,000
324/01 05:55VIAN21Straight Flush600,000
424/01 05:53INDRA_KCStraight Flush600,000
524/01 05:47DONO85Straight Flush600,000
LATEST JACKPOT
No.TanggalNamaPriceWin
124/01 06:02MXKEYFull House1,000
224/01 06:02WINCROTSFour Of A Kind250,000
324/01 06:02R4JA7UN6S1Full House1,000
424/01 06:02EXRCIARAX0Full House10,000
524/01 06:02BATI1234Full House1,000
624/01 06:02POKEORFull House1,000
724/01 06:02LAPULGA3Full House1,000
824/01 06:02ZPOKER78Four Of A Kind250,000
924/01 06:02RUJAK122Four Of A Kind25,000
1024/01 06:02A38EG9BGIBFull House10,000
1124/01 06:02HDP76CDH41Full House1,000
1224/01 06:02DITTA29Full House1,000
1324/01 06:0217DOAFull House1,000
1424/01 06:02IZ11910186Full House1,000
1524/01 06:02GASGAFull House1,000
1624/01 06:02CHALMAEFull House1,000
1724/01 06:02TARMIZI110Full House5,000
1824/01 06:02IMLLEX25Full House1,000
1924/01 06:02PANIK88Full House5,000
2024/01 06:01P3W3Full House1,000
2124/01 06:01GODOK790Full House1,000
2224/01 06:01AKUAJA881Four Of A Kind250,000
2324/01 06:01FENTRYFull House5,000
2424/01 06:01SPESIA1Full House5,000
2524/01 06:01DHENGFull House5,000
2624/01 06:01ASUKUWEFull House1,000
2724/01 06:01F2926B78Full House1,000
2824/01 06:01GO234POKERFull House1,000
2924/01 06:01PASCOLL234Four Of A Kind125,000
3024/01 06:01ANDALAS85Full House1,000
3124/01 06:01HAJAT07Full House1,000
3224/01 06:01RAMOR11Four Of A Kind250,000
3324/01 06:01BILLY1388Full House5,000
3424/01 06:01KOHAFull House1,000
3524/01 06:01THINA9999Full House5,000
3624/01 06:01HOKY114Full House10,000
3724/01 06:01PAAMAANFull House5,000
3824/01 06:01K1R1PIXFull House1,000
3924/01 06:01CUTIX06Full House1,000
4024/01 06:01UCOKBARATFull House1,000
4124/01 06:01ANTO30Full House20,000
4224/01 06:01CASKAPI_99Full House1,000
4324/01 06:01B8F77F91Full House1,000
4424/01 06:01DEKA71Full House1,000
4524/01 06:01999KING999Full House10,000
4624/01 06:01TGT206Four Of A Kind125,000
4724/01 06:01BENJI07Full House10,000
4824/01 06:01WAKIJEMBUTFull House1,000
4924/01 06:01MENCARI9Full House20,000
5024/01 06:01QUANTUMX88Four Of A Kind250,000

Domino Multi Jackpot System

Ikutilah global jackpot yang tersedia di system kami, dengan system jackpot terbaru dan pertama di indonesia, anda dapat membeli jackpot dengan harga 100 rupiah saja dan menangkan hadiahnya hingga puluhan juta rupiah.

Jackpot bukanlah suatu keharusan untuk dibeli, namun kami memberikan suatu fitur tambahan untuk member tercinta dari www.genjipoker.net.

Terdapat tiga pilihan harga jackpot yang bisa anda beli yaitu :100,500 dan 1000 rupiah.

Hadiah dari Multi jackpot system www.genjipoker.net

  1. Murni Kecil x 50 harga jackpot yang anda beli.
      (contoh:anda membeli 1000 maka:1000 X 50 = 50.000)
  2. Murni Besar x 50 harga jackpot yang anda beli
      (contoh:anda membeli 1000 maka:1000 X 50 = 50.000)
  3. BALAK x 100 harga jackpot yang anda beli
      (contoh:anda membeli 1000 maka:1000 X 100 = 100.000)
  4. ENAM DEWA x 6666 harga jackpot yang anda beli
      (contoh:anda membeli 1000 maka:1000 X 6666 = 6.666.000)

Demikian adalah penjelasan dari Multi Jackpot www.genjipoker.net terima kasih dan selamat bermain salam hoki dari kami

Domino Jackpot Winner

TOP ENAM DEWA
No.TanggalNamaPriceWin
124/01 05:28SULTN99murni enam6,666,000
224/01 04:08KITTY995murni enam666,600
324/01 00:16TEMPEKTUOmurni enam3,333,000
423/01 23:59TM7ZINATMJmurni enam6,666,000
523/01 23:50CROSSBACKmurni enam6,666,000
TOP BALAK
No.TanggalNamaPriceWin
124/01 06:00TASLYNDObalak100,000
224/01 05:45RHZ27balak10,000
324/01 05:44MELSKY199balak50,000
424/01 05:29TASLYNDObalak100,000
524/01 05:24REVANORbalak10,000
LATEST JACKPOT
No.TanggalNamaPriceWin
124/01 06:00TASLYNDObalak100,000
224/01 06:00AMKAR007murni kecil50,000
324/01 05:59ROBBIACCmurni besar5,000
424/01 05:58ZKRXWIVmurni besar50,000
524/01 05:57BASENG321murni besar5,000
624/01 05:56NYAIASNI12murni besar25,000
724/01 05:55BASENG321murni besar5,000
824/01 05:55OKEBROW24murni kecil25,000
924/01 05:53NDRIEmurni besar5,000
1024/01 05:51EVIN0680murni kecil25,000
1124/01 05:50NSVT8WYD9Jmurni kecil25,000
1224/01 05:45MAUPA13murni besar50,000
1324/01 05:45TASLYNDOmurni besar50,000
1424/01 05:45RHZ27balak10,000
1524/01 05:44MELSKY199balak50,000
1624/01 05:43GHOSTSTONEmurni besar50,000
1724/01 05:41DALE99murni besar25,000
1824/01 05:40SDISUIPQ3Fmurni kecil50,000
1924/01 05:38OAH99murni besar25,000
2024/01 05:38HATTA88murni kecil5,000
2124/01 05:38PICHIZZmurni kecil5,000
2224/01 05:35SABRINA113murni besar5,000
2324/01 05:35HOHO9998murni kecil25,000
2424/01 05:35IPINK07murni besar50,000
2524/01 05:34BLENDEZ99murni kecil25,000
2624/01 05:33NCI20526murni kecil25,000
2724/01 05:31ABANG45murni besar5,000
2824/01 05:30PELOR711murni kecil50,000
2924/01 05:30Y359999murni kecil5,000
3024/01 05:29ADAMREGImurni besar5,000
3124/01 05:29TASLYNDObalak100,000
3224/01 05:28EDHO1984murni kecil5,000
3324/01 05:28PICHIZZmurni kecil5,000
3424/01 05:28SULTN99murni enam6,666,000
3524/01 05:27ANDDIImurni besar5,000
3624/01 05:26ADAMREGImurni kecil5,000
3724/01 05:24IMAJImurni besar5,000
3824/01 05:24REVANORbalak10,000
3924/01 05:23AMEYOMCmurni besar50,000
4024/01 05:23MOOD87murni kecil50,000
4124/01 05:22BLACKPINKmurni besar5,000
4224/01 05:21GSX750CCmurni kecil5,000
4324/01 05:21SEROMBOTANmurni besar50,000
4424/01 05:21IQOY12murni kecil50,000
4524/01 05:20BLENDEZ99murni kecil25,000
4624/01 05:15TETTY100murni kecil25,000
4724/01 05:13NURDIN82murni kecil25,000
4824/01 05:11SG66OYS99balak10,000
4924/01 05:11MGIWANBbalak10,000
5024/01 05:11CRHSJRmurni kecil50,000

Ceme Multi Jackpot System

Jackpot dilihat dari gabungan kartu pemain dengan kartu bandar. Bandar harus membeli jackpot sebanyak jumlah player yang sedang duduk. Sebagai contoh bila terdapat 3 pemain duduk bermain, dan bandar memutuskan untuk membeli jackpot Rp 1.000, maka pada periode tersebut bandar akan membeli jackpot sebanyak 3xRp1.000 = Rp3.000.

Jackpot bukanlah suatu keharusan untuk dibeli, namun kami memberikan suatu fitur tambahan untuk member tercinta dari www.genjipoker.net.

Terdapat tiga pilihan harga jackpot yang bisa anda beli yaitu :100,500 dan 1000 rupiah.

Hadiah dari Multi jackpot system www.genjipoker.net

  1. Murni Kecil x 50 harga jackpot yang anda beli.
      (contoh:anda membeli 1000 maka:1000 X 50 = 50.000)
  2. Murni Besar x 50 harga jackpot yang anda beli
      (contoh:anda membeli 1000 maka:1000 X 50 = 50.000)
  3. BALAK x 200 harga jackpot yang anda beli
      (contoh:anda membeli 1000 maka:1000 X 200 = 200.000)
  4. ENAM DEWA x 6666 harga jackpot yang anda beli
      (contoh:anda membeli 1000 maka:1000 X 6666 = 6.666.000)

Demikian adalah penjelasan dari Multi Jackpot www.genjipoker.net terima kasih dan selamat bermain salam hoki dari kami

Ceme Jackpot Winner

TOP ENAM DEWA
No.TanggalNamaPriceWin
124/01 05:58GDX234murni enam666,600
224/01 05:58SAKHA13murni enam666,600
324/01 05:53CAPIT98murni enam3,333,000
424/01 05:26TARUNK00murni enam3,333,000
524/01 04:49JAPRAF77murni enam3,333,000
TOP BALAK
No.TanggalNamaPriceWin
124/01 06:01KENUBbalak200,000
224/01 06:01JILBUTOIbalak20,000
324/01 05:58KANA29balak200,000
424/01 05:58KANA29balak200,000
524/01 05:56PEJER4ASbalak200,000
LATEST JACKPOT
No.TanggalNamaPriceWin
124/01 06:02IXMXDXLXmurni besar25,000
224/01 06:01SAHARRAmurni besar5,000
324/01 06:01CROSIA12murni kecil25,000
424/01 06:01KENUBbalak200,000
524/01 06:01JILBUTOIbalak20,000
624/01 06:00IIRNIA39murni kecil50,000
724/01 06:00SUKALIMAS2murni kecil50,000
824/01 06:00IMS303murni kecil50,000
924/01 05:59WILYPPMmurni kecil50,000
1024/01 05:59WILYPPMmurni kecil50,000
1124/01 05:59QINULL97murni besar50,000
1224/01 05:58KANA29murni kecil50,000
1324/01 05:58BRONDONK22murni kecil5,000
1424/01 05:58KANA29balak200,000
1524/01 05:58GDX234murni enam666,600
1624/01 05:58SAKHA13murni enam666,600
1724/01 05:58RANGGER77murni kecil5,000
1824/01 05:58KANA29balak200,000
1924/01 05:58RAFLI45murni besar25,000
2024/01 05:58ATM_99murni kecil50,000
2124/01 05:57NENEX47murni kecil25,000
2224/01 05:57KL_09murni kecil25,000
2324/01 05:57LA1URVLFQEmurni besar25,000
2424/01 05:57AJOTONJOmurni besar5,000
2524/01 05:56SHOGUN51murni kecil50,000
2624/01 05:56L00B1murni kecil5,000
2724/01 05:56JAPRAF77murni kecil25,000
2824/01 05:56PEJER4ASbalak200,000
2924/01 05:56PIERCE1balak20,000
3024/01 05:56KECILOHmurni besar5,000
3124/01 05:55AJOTONJOmurni kecil5,000
3224/01 05:55BOGELHOKI9murni besar50,000
3324/01 05:55KUNCRETmurni besar50,000
3424/01 05:54RAFI374balak100,000
3524/01 05:54BOGELHOKI9murni kecil50,000
3624/01 05:54DINI1980murni kecil25,000
3724/01 05:54MATUR91murni besar50,000
3824/01 05:54GLOBAL69murni besar5,000
3924/01 05:53CAPIT98murni enam3,333,000
4024/01 05:53ZDMbalak20,000
4124/01 05:5399TERUSmurni besar50,000
4224/01 05:52HELM46murni kecil50,000
4324/01 05:51PRUTII21balak200,000
4424/01 05:51PILEZbalak200,000
4524/01 05:51PEJER4ASmurni besar50,000
4624/01 05:51FVCKME78murni kecil25,000
4724/01 05:50AHAHAE88murni kecil50,000
4824/01 05:50XIAOMIYImurni besar25,000
4924/01 05:50KUPRETTOKmurni besar50,000
5024/01 05:50RADEON78murni besar50,000